Huntington, WV

5:41 PM EST on February 19, 2018 (GMT -0500)
Tri-State / Ferguson

Weather History for KHTS - January, 2012

Change the Weather History Date:

Sunday, January 22, 2012

  Actual Average Record
Temperature  
Mean Temperature 41 °F 34 °F  
Max Temperature 53 °F 42 °F 76 °F (1999)
Min Temperature 29 °F 25 °F -9 °F (1984)
Degree Days  
Heating Degree Days 24 31  
Month to date heating degree days 634 688  
Since 1 July heating degree days 2155 2443  
Cooling Degree Days 0 0  
Month to date cooling degree days 0 0  
Year to date cooling degree days 0 0  
Moisture  
Dew Point 34 °F    
Average Humidity 82    
Maximum Humidity 100    
Minimum Humidity 64    
Precipitation  
Precipitation T in 0.09 in 1.78 in (1926)
Month to date precipitation 1.32 2.09  
Year to date precipitation 1.32 2.09  
Snow  
Snow 0.00 in 0.30 in 9.60 in (2016)
Month to date snowfall 0.3 4.7  
Since 1 September snowfall 0.3 9.3  
Snow Depth 0.00 in    
Sea Level Pressure  
Sea Level Pressure 30.11 in    
Wind  
Wind Speed 3 mph (East)    
Max Wind Speed 9 mph    
Max Gust Speed 14 mph    
Visibility 5 miles    
Events Fog , Rain    
T = Trace of Precipitation, MM = Missing Value Source: NWS Daily Summary

Daily Weather History Graph

Daily Weather History Graph

Search for Another Location

Airport or City:

Trip Planner

Search our weather history database for the weather conditions in past years. The results will help you decide how hot, cold, wet, or windy it might be!

Date:

Astronomy

Jan. 22, 2012 Rise Set
Actual Time 7:43 AM EST 5:40 PM EST
Civil Twilight 7:14 AM EST 6:09 PM EST
Nautical Twilight 6:42 AM EST 6:41 PM EST
Astronomical Twilight 6:10 AM EST 7:13 PM EST
Moon 6:58 AM EST (1/22) 5:21 PM EST (1/22)
Length of Visible Light 10h 54m
Length of Day
9h 57m
Waning Crescent, 0% of the Moon is Illuminated
Jan 22
Waning Crescent
Jan 23
New
Jan 30
First Quarter
Feb 7
Full
Feb 14
Last Quarter

Hourly Weather History & Observations

Time (EST) Temp. Windchill Dew Point Humidity Pressure Visibility Wind Dir Wind Speed Gust Speed Precip Events Conditions
12:51 AM 28.9 °F 25.2 °F 28.0 °F 96% 30.21 in 5.0 mi East 3.5 mph - N/A   Overcast
1:51 AM 28.9 °F 22.8 °F 28.0 °F 96% 30.22 in 4.0 mi ENE 5.8 mph - N/A   Overcast
2:51 AM 28.9 °F 25.2 °F 28.0 °F 96% 30.21 in 3.0 mi NE 3.5 mph - N/A   Overcast
3:02 AM 30.2 °F 25.4 °F 28.4 °F 93% 30.18 in 4.0 mi NE 4.6 mph - N/A   Overcast
3:51 AM 30.2 °F - 28.4 °F 93% 30.17 in 4.0 mi Calm Calm - N/A   Overcast
4:34 AM 30.2 °F 26.7 °F 28.4 °F 93% 30.16 in 2.5 mi NE 3.5 mph - N/A   Overcast
4:43 AM 30.2 °F - 28.4 °F 93% 30.15 in 1.8 mi Calm Calm - N/A   Overcast
4:51 AM 30.0 °F 26.5 °F 28.9 °F 96% 30.17 in 2.5 mi NE 3.5 mph - N/A   Overcast
5:16 AM 30.2 °F 25.4 °F 28.4 °F 93% 30.15 in 2.5 mi NE 4.6 mph - N/A   Overcast
5:30 AM 30.2 °F 25.4 °F 28.4 °F 93% 30.15 in 1.5 mi ENE 4.6 mph - N/A   Overcast
5:51 AM 30.0 °F 26.5 °F 28.9 °F 96% 30.17 in 0.8 mi NE 3.5 mph - N/A   Overcast
6:51 AM 30.2 °F 26.7 °F 30.2 °F 100% 30.15 in 0.8 mi East 3.5 mph - N/A   Mist
7:51 AM 30.9 °F 27.5 °F 30.0 °F 96% 30.16 in 0.2 mi ENE 3.5 mph - N/A Fog Light Freezing Fog
8:51 AM 30.2 °F 26.7 °F 30.2 °F 100% 30.15 in 0.2 mi East 3.5 mph - N/A Fog Light Freezing Fog
9:51 AM 30.9 °F 26.2 °F 30.9 °F 100% 30.18 in 0.2 mi ESE 4.6 mph - N/A Fog Light Freezing Fog
10:51 AM 33.1 °F 30.0 °F 33.1 °F 100% 30.17 in 0.2 mi ESE 3.5 mph - N/A Fog Fog
11:31 AM 33.8 °F 29.6 °F 33.8 °F 100% 30.14 in 0.5 mi ESE 4.6 mph - N/A Fog Fog
11:51 AM 34.0 °F 31.0 °F 34.0 °F 100% 30.16 in 0.8 mi ESE 3.5 mph - N/A   Overcast
12:51 PM 37.0 °F - 36.0 °F 96% 30.13 in 0.8 mi Calm Calm - N/A   Overcast
12:58 PM 37.4 °F 33.8 °F 37.4 °F 100% 30.10 in 3.0 mi SE 4.6 mph - N/A   Overcast
1:51 PM 39.0 °F - 37.9 °F 96% 30.11 in 4.0 mi Calm Calm - N/A   Overcast
2:32 PM 44.6 °F 43.1 °F 39.2 °F 81% 30.07 in 9.0 mi North 3.5 mph - N/A   Overcast
2:43 PM 44.6 °F 43.1 °F 39.2 °F 81% 30.07 in 9.0 mi NNE 3.5 mph - N/A   Scattered Clouds
2:51 PM 44.1 °F - 39.0 °F 82% 30.09 in 10.0 mi Calm Calm - N/A   Scattered Clouds
3:51 PM 45.0 °F - 39.9 °F 82% 30.06 in 10.0 mi Calm Calm - N/A   Overcast
4:51 PM 44.6 °F - 39.2 °F 81% 30.03 in 10.0 mi Calm Calm - N/A   Mostly Cloudy
5:51 PM 45.0 °F - 41.0 °F 86% 30.04 in 10.0 mi Calm Calm - N/A   Overcast
6:51 PM 46.0 °F - 41.0 °F 83% 30.03 in 10.0 mi Calm Calm - 0.00 in Rain Light Rain
7:51 PM 52.0 °F - 42.1 °F 69% 30.02 in 10.0 mi SE 5.8 mph - 0.00 in   Mostly Cloudy
8:51 PM 53.1 °F - 41.0 °F 64% 30.01 in 10.0 mi SSE 6.9 mph - N/A   Scattered Clouds
9:51 PM 53.6 °F - 41.0 °F 62% 29.99 in 10.0 mi SE 5.8 mph - N/A   Mostly Cloudy
10:51 PM 53.6 °F - 41.0 °F 62% 29.97 in 10.0 mi SE 4.6 mph - N/A   Overcast
11:51 PM 53.1 °F - 42.1 °F 66% 29.95 in 10.0 mi SE 6.9 mph - N/A   Mostly Cloudy